Location: Chagrin Falls Park
(41.4139°N, 81.3865°W)
Time: 12:16:32
(UTC+00:00)

ISS - Pass Details

Date: 06 August 2021
Orbit: 419 x 423 km, 51.6° (Epoch: 17 September)

Event Time Altitude Azimuth Distance (km) Brightness Sun altitude
Rises 00:51:18 0° 295° (WNW) 2,378 3.7 -3.2°
Reaches altitude 10° 00:53:40 10° 281° (W) 1,508 0.7 -3.6°
Maximum altitude 00:56:25 23° 226° (SW) 937 -1.7 -4.0°
Drops below altitude 10° 00:59:10 10° 171° (S) 1,497 -1.3 -4.5°
Enters shadow 01:01:28 - 157° (SSE) 2,343 -0.4 -4.9°
